SCP
0 0 0 0 0 0 0 0 0 0 0 0 0 0 0 0 0 0 0 0 0 0 0 0 0 0 0 0 0 0 0 0 0 0 0 0 0 0 0 0 0 0 0
1 0 0 0 0 0 0 0 0 0 0 0 0 0 0 0 0 0 0 0 0 0 0 0 0 0 0 0 0 0 0 0 0 0 0 0 0 0 0 0 0 0 0
1 1 0 0 0 0 0 0 0 0 0 0 0 0 0 0 0 0 0 0 0 0 0 0 0 0 0 0 0 0 0 0 0 0 0 0 0 0 0 0 0 0 0
1 1 0 0 0 0 0 0 0 0 0 0 0 0 0 0 0 0 0 0 0 0 0 0 0 0 0 0 0 0 0 0 0 0 0 0 0 0 0 0 0 0 0
1 1 1 0 0 0 0 0 0 0 0 0 0 0 0 0 0 0 0 0 0 0 0 0 0 0 0 0 0 0 0 0 0 0 0 0 0 0 0 0 0 0 0
1 1 1 1 0 0 0 0 0 0 0 0 0 0 0 0 0 0 0 0 0 0 0 0 0 0 0 0 0 0 0 0 0 0 0 0 0 0 0 0 0 0 0
1 1 1 1 1 1 1 1 1 1 0 0 0 0 0 0 0 0 0 0 0 0 0 0 0 0 0 0 0 0 0 0 0 0 0 0 0 0 0 0 0 0 0
1 1 1 1 1 1 1 1 1 1 1 1 1 0 0 0 0 0 0 0 0 0 0 0 0 0 0 0 0 0 0 0 0 0 0 0 0 0 0 0 0 0 0
1 1 1 1 1 1 1 1 1 1 1 1 1 1 1 1 0 0 0 0 0 0 0 0 0 0 0 0 0 0 0 0 0 0 0 0 0 0 0 0 0 0 0
1 1 1 1 1 1 1 1 1 1 1 1 1 1 1 1 1 0 0 0 0 0 0 0 0 0 0 0 0 0 0 0 0 0 0 0 0 0 0 0 0 0 0
1 1 1 1 1 1 1 1 1 1 1 1 1 1 1 1 1 0 0 0 0 0 0 0 0 0 0 0 0 0 0 0 0 0 0 0 0 0 0 0 0 0 0
1 1 1 1 1 1 1 1 1 1 1 1 0 0 0 0 0 0 0 0 0 0 1 1 0 0 0 0 0 0 0 0 0 0 0 0 0 0 0 0 0 0 0
1 1 1 1 1 1 1 1 1 1 1 1 0 0 0 0 0 0 0 0 0 0 0 0 0 0 0 0 0 0 0 0 0 0 0 0 0 0 0 0 0 0 0
1 1 1 1 1 1 1 1 1 1 1 1 1 1 0 0 0 0 0 0 0 0 0 0 0 0 0 0 0 0 0 0 0 0 0 0 0 0 0 0 0 0 0
1 1 1 1 1 1 1 0 0 0 0 0 0 0 0 0 0 0 0 0 0 0 0 0 0 0 0 0 0 0 0 0 0 0 0 0 0 0 0 0 0 0 0
1 0 0 1 1 1 0 0 0 0 0 0 0 0 0 0 0 0 0 0 0 0 0 0 0 0 0 0 0 0 0 0 0 0 0 0 0 0 0 0 0 0 0
0 0 0 0 1 0 0 0 0 0 0 0 0 0 0 0 0 0 0 0 0 0 0 0 0 0 0 0 0 0 0 0 0 0 0 0 0 0 0 0 0 0 0
0 0 0 0 0 0 0 0 0 0 0 0 0 0 0 0 0 0 0 0 0 0 0 0 0 0 0 0 0 0 0 0 0 0 0 0 0 0 0 0 0 0 0
0 0 0 0 0 0 0 0 0 0 0 0 0 0 0 0 0 0 0 0 0 0 0 0 0 0 0 0 0 0 0 0 0 0 0 0 0 0 0 0 0 0 0
0 0 0 0 0 0 0 0 0 0 0 0 0 0 0 0 0 0 0 0 0 0 0 0 0 0 0 0 0 0 0 0 0 0 0 0 0 0 0 0 0 0 0
0 0 0 0 0 0 0 0 0 0 0 0 0 0 0 0 0 0 0 0 0 0 0 0 0 0 0 0 0 0 0 0 0 0 0 0 0 0 0 0 0 0 0
0 0 0 0 0 0 0 0 0 0 0 0 0 0 0 0 0 0 0 0 0 0 0 0 0 0 0 0 0 0 0 0 0 0 0 0 0 0 0 0 0 0 0
0 0 0 0 0 0 0 0 0 0 0 0 0 0 0 0 0 0 0 0 0 0 0 0 0 0 0 0 0 0 0 0 0 0 0 0 0 0 0 0 0 0 0
0 0 0 0 0 0 0 0 0 0 0 0 0 0 0 0 0 0 0 0 0 0 0 0 0 0 0 0 0 0 0 0 0 0 0 0 0 0 0 0 0 0 0
0 0 0 0 0 0 0 0 0 0 0 0 0 0 0 0 0 0 0 0 0 0 0 0 0 0 0 0 0 0 0 0 0 0 0 0 0 0 0 0 0 0 0
0 0 0 0 0 0 0 0 0 0 0 0 0 0 0 0 0 0 0 0 0 0 0 0 0 0 0 0 0 0 0 0 0 0 0 0 0 0 0 0 0 0 0
Wind_Speed
7 6 5 5 5 4 4 4 3 3 2 2 2 2 2 2 2 2 1 1 1 1 1 1 2 1 1 1 1 1 1 2 2 2 1 1 2 2 2 2 3 3 3
7 6 6 5 5 5 4 4 3 3 3 3 2 2 3 2 2 2 2 2 2 2 2 1 2 1 1 1 1 1 1 2 3 2 2 1 2 3 2 3 3 4 4
7 7 6 6 6 6 5 4 4 3 3 2 2 2 2 2 2 2 2 2 2 3 3 3 3 2 2 2 1 1 1 1 2 2 2 2 2 1 1 2 3 3 4
7 7 7 7 7 6 5 5 4 4 4 3 3 3 2 2 2 2 2 2 2 3 3 3 3 3 3 3 2 2 2 1 1 1 2 2 2 2 1 2 2 3 4
7 7 7 7 6 5 5 5 4 4 4 4 3 2 2 2 2 2 2 3 3 3 3 3 3 3 4 3 3 3 2 2 2 2 2 2 2 2 3 3 3 3 3
7 7 7 6 6 6 6 5 5 4 4 3 3 3 3 3 4 5 4 3 3 3 3 3 3 3 4 5 5 5 5 4 4 3 3 3 5 4 3 3 3 2 3
7 7 7 6 6 6 7 5 5 5 4 4 4 4 4 5 5 5 4 3 3 3 4 3 3 3 3 3 4 4 5 7 7 6 5 6 5 5 4 4 4 4 5
6 6 6 6 6 5 5 6 6 5 5 5 5 5 5 5 5 5 5 3 3 4 4 4 4 4 4 3 3 3 4 5 6 6 7 7 6 6 6 6 6 5 4
6 6 6 6 6 5 5 5 5 5 5 5 4 5 5 5 6 6 5 3 3 4 4 4 4 5 6 5 3 4 5 6 6 7 8 8 8 7 5 2 2 2 3
6 5 5 5 6 6 6 5 4 4 5 4 4 5 5 5 6 7 6 3 3 4 3 4 5 6 7 6 5 5 6 7 5 4 5 6 5 6 6 6 5 4 3
5 5 4 4 5 5 4 3 3 3 3 3 4 4 5 6 7 8 7 4 4 4 4 4 4 6 7 7 7 6 9 7 4 4 4 4 3 3 4 5 5 5 5
4 4 4 4 4 3 3 3 3 4 4 4 4 4 4 5 6 7 8 8 6 5 5 4 5 6 7 8 7 8 8 5 3 3 3 4 4 4 5 5 5 5 6
4 3 3 3 3 3 4 4 3 4 4 4 4 5 5 4 4 7 8 9 8 5 5 7 8 8 7 7 8 8 6 4 4 4 5 5 5 5 3 2 3 3 4
4 3 3 3 3 3 3 3 4 4 4 4 4 4 4 3 3 3 3 4 5 5 5 6 7 7 5 6 5 4 4 5 5 5 5 5 3 3 3 3 3 2 2
3 2 2 3 3 3 2 2 3 4 5 5 5 4 4 4 6 7 5 4 4 5 3 1 1 2 3 3 3 3 3 3 4 4 4 3 3 3 3 3 2 2 3
3 2 2 2 2 2 2 2 3 4 5 6 7 6 5 7 7 7 7 7 7 6 3 2 3 3 4 4 4 4 3 4 4 4 3 3 4 3 3 2 2 3 3
3 2 1 2 2 2 2 2 3 4 4 5 6 7 7 7 7 7 7 5 4 5 3 4 4 4 5 5 4 4 4 4 3 3 3 4 3 3 3 3 3 3 3
3 3 2 2 2 2 3 3 3 3 3 4 5 7 7 7 7 6 4 2 1 3 4 4 5 4 4 4 4 4 4 3 3 3 3 3 3 3 3 3 3 4 4
3 2 2 2 2 3 3 3 3 4 4 4 3 4 5 5 4 4 5 3 4 4 4 4 4 4 4 4 4 3 3 3 3 3 3 3 3 3 3 4 4 4 4
2 3 3 2 2 2 2 3 3 3 3 4 4 4 2 1 1 2 3 3 4 4 4 4 4 4 4 3 3 2 2 2 3 3 3 3 3 3 4 4 4 4 3
2 2 2 2 2 2 2 3 3 3 3 4 4 4 4 3 4 4 4 4 4 4 4 4 4 3 3 2 2 3 3 3 3 3 3 3 3 3 3 4 4 4 3
2 2 2 2 2 2 3 3 3 3 4 4 4 4 5 3 3 4 4 4 4 4 3 3 3 3 3 3 3 3 3 3 3 2 3 3 3 3 3 3 3 3 2
2 2 2 2 2 3 3 2 2 3 3 3 3 3 2 3 3 3 4 4 3 3 2 2 2 2 1 1 1 2 2 2 3 3 2 2 2 2 2 3 3 3 3
2 2 2 2 2 2 2 2 2 2 2 2 2 2 2 2 2 3 3 2 2 1 1 1 1 2 2 1 0 0 1 2 2 2 2 2 2 2 2 2 3 3 3
1 1 1 1 1 1 1 1 1 1 2 2 2 2 2 2 2 2 1 0 0 0 1 1 1 1 2 1 0 0 1 1 1 1 1 1 1 1 1 1 1 2 2
0 1 1 1 1 1 1 1 1 2 2 2 1 2 2 1 1 1 0 0 1 1 1 1 1 2 2 1 1 1 1 1 2 1 0 0 0 1 1 1 2 2 2
Wind_Direction
179 179 177 177 175 169 173 184 185 183 181 175 176 174 175 185 184 168 195 195 191 245 256 216 234 228 223 236 195 188 191 168 209 268 244 225 185 206 212 217 219 222 226
181 177 179 173 171 175 186 193 182 181 180 178 175 174 186 194 193 192 213 212 206 229 244 231 246 234 227 232 202 211 218 194 182 229 256 229 215 215 215 216 223 224 227
177 176 178 176 176 183 187 187 180 178 179 176 165 174 190 199 202 208 208 217 220 231 236 229 238 216 238 234 218 223 230 210 182 190 240 235 237 223 212 243 238 248 235
174 176 182 185 186 189 188 185 184 178 178 182 183 188 191 194 201 208 208 219 235 246 246 234 227 215 220 225 224 226 216 196 190 197 239 250 243 236 190 226 254 253 248
172 177 188 189 184 182 185 189 189 187 193 187 181 194 200 203 217 214 217 224 232 246 254 242 232 221 218 220 221 218 203 203 203 209 233 249 247 225 224 218 229 253 256
174 184 186 183 183 187 190 190 187 192 194 184 191 198 214 235 236 223 212 225 227 228 244 254 243 234 242 238 235 223 203 198 207 212 226 232 242 233 228 220 217 226 262
178 182 183 183 189 197 197 191 195 200 196 198 205 204 219 237 234 226 218 216 223 227 231 239 252 255 241 245 251 243 235 231 213 204 221 231 232 225 214 224 220 219 236
179 187 189 184 190 195 196 198 203 203 201 209 215 216 221 240 232 228 222 223 236 235 230 226 233 252 249 229 241 257 258 253 238 223 226 234 233 226 211 212 220 235 255
181 188 193 187 188 190 197 206 209 205 212 216 213 215 222 243 235 223 213 220 240 248 243 236 230 245 251 227 226 251 269 275 264 243 240 245 245 237 216 199 214 220 257
182 184 186 183 186 194 202 205 206 208 218 218 223 224 223 235 232 221 209 215 237 255 262 254 240 242 249 229 223 234 253 264 273 278 267 268 262 256 231 211 207 211 234
178 177 181 181 188 196 198 203 208 212 219 221 228 236 232 232 232 224 210 210 229 242 252 258 258 251 248 240 230 233 244 251 251 249 259 266 267 261 245 230 215 207 214
163 170 183 187 197 202 192 212 219 206 217 231 236 248 247 238 232 227 213 212 216 223 244 253 256 255 252 250 243 246 250 249 251 251 253 257 255 254 250 239 229 226 224
156 174 188 191 199 198 195 208 215 214 219 232 232 242 250 242 237 231 221 222 223 225 246 255 260 256 251 250 250 248 243 233 233 245 251 253 249 249 249 249 246 238 246
162 180 188 188 198 205 205 205 209 216 221 227 228 239 252 253 247 239 232 229 233 240 257 270 269 262 259 259 262 249 231 229 229 239 249 255 259 254 246 236 238 241 261
160 172 193 199 203 208 216 227 223 228 220 219 227 226 232 249 250 236 229 231 228 233 240 268 270 280 275 281 270 252 241 238 239 245 249 257 255 251 250 240 228 223 232
163 172 193 203 206 204 208 265 280 253 252 242 232 225 234 237 242 239 238 234 228 215 188 226 246 250 254 257 257 250 241 240 242 241 238 239 243 243 248 247 231 223 235
169 178 185 210 207 213 217 221 264 292 283 264 253 242 238 242 239 239 237 230 226 183 195 231 240 245 252 255 251 242 243 242 237 238 237 237 240 240 240 242 237 235 241
175 184 190 212 216 214 220 225 232 242 266 276 265 251 252 250 243 238 220 172 203 200 220 231 239 244 247 252 252 244 245 247 236 234 236 234 230 230 233 238 236 235 237
185 203 206 219 227 229 223 223 231 239 248 262 278 276 265 263 260 239 188 194 215 225 229 233 236 239 242 247 253 250 243 243 245 235 232 236 233 230 237 240 241 243 235
189 203 208 217 228 236 231 231 234 240 249 254 256 256 248 210 239 235 219 228 230 234 229 230 232 232 236 242 255 257 254 248 246 245 246 243 237 231 236 243 241 239 239
192 215 231 238 234 239 240 235 235 239 246 250 253 250 217 215 228 228 224 227 228 230 231 229 229 233 234 232 231 241 248 254 251 248 252 247 241 240 242 244 247 239 240
197 212 223 235 242 242 242 242 237 239 245 249 258 264 238 229 231 228 227 230 230 231 228 224 220 221 219 213 215 224 240 252 253 248 246 248 246 249 251 252 255 246 235
206 221 236 243 241 240 245 247 247 250 254 254 258 258 242 237 238 232 235 237 231 232 229 212 207 207 215 216 211 208 220 242 252 241 240 252 260 263 261 263 258 247 245
201 218 233 246 250 242 241 247 252 254 254 263 266 262 253 240 242 245 247 242 232 235 210 178 179 170 162 140 106 219 269 272 277 258 235 237 253 262 262 259 257 248 245
215 236 240 250 249 254 252 259 267 270 274 272 267 270 271 262 253 254 262 253 159 125 119 121 121 128 125 113 104 296 284 296 299 303 278 233 254 280 284 281 279 283 273
210 241 254 257 255 251 252 263 276 284 284 282 277 272 274 276 269 266 243 107 92 78 70 73 86 101 104 99 53 356 351 0 351 331 308 210 275 291 297 288 298 299 296